Location: Llanfihangel-Ystrad
(52.1833°N, 4.1667°W)
Time: 19:56:46
(UTC+00:00)

USA 215 - Pass Details

Date: 17 February 2020
Orbit: 1098 x 1110 km, 123.0° (Epoch: 08 March)

Event Time Altitude Azimuth Distance (km) Brightness Sun altitude
Rises 06:38:30 0° 92° (E) 3,914 8.4 -8.4°
Reaches altitude 10° 06:41:00 10° 89° (E) 2,958 7.1 -8.0°
Maximum altitude 06:47:26 63° 10° (N) 1,219 3.6 -7.0°
Drops below altitude 10° 06:53:53 10° 292° (WNW) 2,969 4.9 -6.1°
Enters shadow 06:54:42 - 291° (WNW) 3,279 5.1 -5.9°
